Regional Weather Roundup
Issued by NWS

Home | Current Version | Previous Version | Graphics & Text | Print | Product List | Glossary On
Versions: 1 2 3 4 5 6 7 8 9 10 11 12 13 14 15 16 17 18 19 20 21 22 23 24 25 26 27 28 29 30 31 32 33 34 35 36 37 38 39 40 41 42 43 44 45 46 47 48 49 50
362
ASUS44 KLIX 211105
RWRLA
LOUISIANA WEATHER ROUNDUP
NATIONAL WEATHER SERVICE NEW ORLEANS LA
500 AM CST SUN DEC 21 2014

NOTE: "FAIR" INDICATES FEW OR NO CLOUDS BELOW 12,000 FEET WITH NO
      SIGNIFICANT WEATHER AND/OR OBSTRUCTIONS TO VISIBILITY.
      SKY/WX - SKY CONDITION AND SIGNIFICANT WEATHER.
      TMP - AIR TEMPERATURE.    DP   - DEWPOINT TEMPERATURE.
      RH  - RELATIVE HUMIDITY.  PRES - PRESSURE.
      HX  - HEAT INDEX.         WCI  - WIND CHILL INDEX.

*  THESE STATIONS ARE NOT NWS OR FAA STATIONS AND ARE NOT UNDER
   NWS QUALITY CONTROL.

LAZ040-048-061>063-065-066-069-211200-
SOUTHEAST LOUISIANA

CITY           SKY/WX    TMP DP  RH WIND       PRES   REMARKS
N.O. AUDUBON     N/A     53  50  89 MISG        N/A
N.O. INTL ARPT CLOUDY    53  47  79 E8        30.10F
N.O. LAKEFRONT CLOUDY    54  47  77 E12       30.11F
N.O. DOWNTOWN* CLOUDY    52  45  76 NE3       30.11F
SLIDELL        CLOUDY    51  46  83 CALM      30.11F
BATON ROUGE    CLOUDY    48  44  86 CALM      30.12S
BOOTHVILLE     CLOUDY    54  52  93 N7        30.09F
BELLE CHASSE   CLOUDY    52  48  86 N6        30.11S
BOGALUSA*        N/A     46  43  88 N3        30.13F
GALLIANO*      CLOUDY    55  52  90 MISG      30.09F
NEW ROADS*     CLOUDY    44  43  97 CALM      30.13S
GONZALES*      CLOUDY    47  47 100 CALM      30.11S
HAMMOND*       NOT AVBL
HOUMA*         CLOUDY    51  49  93 NE7       30.10F
PORT FOURCHON* CLOUDY    54  52  94 NE14      30.12S FOG

$$

LAZ041-044-053-054-211200-
SOUTHWEST LOUISIANA

CITY           SKY/WX    TMP DP  RH WIND       PRES   REMARKS
LAKE CHARLES   PTCLDY    41  39  93 CALM      30.11F FOG
LAFAYETTE      CLOUDY    47  46  97 NE5       30.12S FOG
PATTERSON      CLOUDY    52  46  82 NE7       30.11F
SALT POINT       N/A     54  49  83 CALM      30.09F
NEW IBERIA     CLOUDY    48  47  96 NE3       30.12F FOG
CHENAULT AIRPK NOT AVBL

$$

LAZ027-028-211200-
CENTRAL LOUISIANA

CITY           SKY/WX    TMP DP  RH WIND       PRES   REMARKS
FORT POLK      CLEAR     41  40  97 NE6       30.11
ALEXANDRIA INT CLEAR     36  36 100 CALM      30.12F FOG
ALEXANDRIA     PTCLDY    34  33  96 CALM      30.13F

$$

LAZ001-002-211200-
NORTHWEST LOUISIANA

CITY           SKY/WX    TMP DP  RH WIND       PRES   REMARKS
SHREVEPORT     PTCLDY    34  33  96 W5        30.15S FOG     WCI  30
BARKSDALE AFB  NOT AVBL
DTN SHREVEPORT FOG       34  33  96 CALM      30.16F VSB 1/2

$$

LAZ014-016-211200-
NORTHEAST LOUISIANA

CITY           SKY/WX    TMP DP  RH WIND       PRES   REMARKS
MONROE         CLEAR     37  36  96 E3        30.17S
TALLULAH       CLEAR     37  34  89 CALM      30.16F

$$




USA.gov is the U.S. government's official web portal to all federal, state and local government web resources and services.